Wind_Speed
8 9 9 10 12 14 17 20 18 13 14 18 20 21 19 19 23 25 26 27 27 28 28 29 30 30 30 27 21 18 19 19 18 18 18 19 19 19 19 19 17 16 16 16 16 16 16 16 16 16 15 15 15 16 17 18 18 18 18 17 17 18 19
8 9 9 11 14 15 18 19 18 15 17 19 21 21 20 21 24 26 27 28 28 29 29 30 31 31 31 29 24 21 20 20 19 18 18 18 19 19 19 19 18 17 16 16 17 16 16 17 16 16 16 15 16 16 17 18 18 18 17 17 18 19 20
7 9 11 12 15 17 18 19 20 20 20 19 20 22 22 24 26 27 29 30 30 31 31 31 32 32 32 31 27 23 21 21 21 19 18 18 19 19 19 19 18 17 17 17 17 17 17 17 17 16 16 16 16 16 17 18 18 18 17 18 18 19 20
10 11 13 15 17 18 18 18 19 20 20 20 21 23 25 27 28 29 31 32 32 32 32 33 33 33 33 32 29 25 23 23 22 20 18 18 19 20 19 18 18 18 17 17 17 17 17 17 17 16 16 16 16 17 18 18 18 17 17 18 18 19 20
13 14 15 16 18 18 17 17 17 19 21 21 23 25 27 29 30 31 32 33 34 35 34 34 34 33 33 33 31 27 24 23 22 20 19 18 19 20 19 18 18 18 17 17 17 17 17 17 17 16 16 16 17 17 17 17 17 17 17 18 18 19 20
14 16 16 16 17 16 16 17 17 19 21 23 24 25 27 29 31 32 33 35 36 36 36 36 35 34 33 33 33 28 24 22 20 20 19 18 19 20 19 19 18 18 18 17 17 17 17 17 17 16 16 16 17 17 17 17 16 16 17 18 19 20 21
14 15 16 16 17 18 20 21 21 22 24 25 27 27 28 30 32 33 35 36 37 39 40 37 35 34 34 34 32 27 23 21 18 18 18 17 19 20 19 19 19 18 18 17 17 17 17 17 17 16 17 16 17 17 17 17 16 17 18 19 19 21 21
14 16 17 19 20 21 23 24 25 26 27 28 28 29 30 31 33 36 37 38 39 40 39 36 34 34 34 35 32 26 23 21 18 16 17 17 18 19 20 19 19 19 18 17 16 16 17 17 17 17 17 17 17 17 17 17 17 17 18 19 20 21 21
16 18 19 21 22 23 25 27 27 28 28 29 29 30 31 33 36 38 38 39 39 38 38 36 35 34 34 35 31 23 19 19 18 17 17 17 18 19 19 19 19 19 17 16 16 16 17 17 17 17 17 17 17 17 17 17 17 18 19 20 20 21 21
18 19 20 22 23 25 27 28 29 29 30 30 30 30 31 33 36 38 39 40 40 40 39 34 29 28 30 30 24 18 17 19 18 17 17 18 18 19 19 19 19 18 16 15 16 17 18 18 18 18 17 17 17 17 17 17 17 18 19 20 20 20 20
20 21 22 23 25 27 29 30 30 30 30 30 29 29 30 32 34 36 37 37 39 40 37 30 27 26 25 22 18 17 19 19 17 17 17 18 19 18 18 18 19 18 16 16 16 17 18 18 18 18 17 17 17 17 17 17 17 17 18 19 19 19 19
22 23 23 24 26 28 30 30 30 29 28 27 26 27 28 30 33 35 35 34 37 41 37 27 24 24 19 16 16 17 19 18 16 17 17 18 18 18 18 18 18 17 16 16 17 18 19 19 18 18 17 17 17 16 16 16 17 17 17 18 18 18 17
22 22 22 23 25 27 27 27 25 25 25 24 24 25 27 31 36 38 36 31 30 35 33 23 19 19 16 16 16 17 18 17 17 18 17 18 18 17 18 18 17 16 16 16 17 18 19 19 18 18 17 16 16 15 16 16 16 16 16 16 16 16 15
20 19 20 21 22 22 21 22 22 22 22 22 23 25 28 34 36 34 32 29 26 27 26 22 20 19 17 17 16 16 18 17 17 17 17 18 17 18 19 18 16 16 16 17 17 18 19 19 18 17 16 16 15 14 15 15 16 15 15 15 15 14 13
18 17 17 17 17 17 17 19 20 20 21 21 24 26 29 34 35 29 28 29 28 28 22 18 18 18 18 18 17 18 18 17 17 17 17 17 18 18 18 17 15 15 16 17 18 18 18 18 17 16 15 15 14 13 13 14 15 14 14 14 14 12 12
17 15 14 12 13 15 16 18 19 19 21 22 25 27 29 33 32 28 28 28 27 26 21 18 17 17 18 18 17 18 18 17 16 16 16 17 18 18 17 16 15 15 16 17 18 18 18 17 17 16 15 14 13 12 12 13 13 13 14 13 12 12 13
12 10 10 10 13 15 16 17 18 20 21 23 25 27 29 31 30 29 30 27 24 22 19 17 17 16 16 17 17 17 17 16 15 15 16 17 18 17 16 15 15 16 17 17 17 17 17 16 16 15 14 13 12 11 11 11 12 12 13 12 10 12 14
8 7 8 10 13 15 16 18 19 20 22 23 25 26 27 28 29 30 28 24 20 18 16 15 16 16 16 16 15 16 15 14 14 15 16 17 17 16 15 15 16 17 17 17 17 16 16 16 15 15 13 12 12 11 11 10 11 11 11 10 10 13 14
7 6 9 11 13 15 17 18 19 20 22 24 24 25 24 25 27 26 23 20 18 17 15 14 15 14 14 14 14 14 14 13 14 14 15 15 15 15 15 16 17 17 17 16 16 15 15 15 14 13 13 12 11 11 10 10 10 10 9 9 11 13 14
11 9 11 12 14 15 17 18 19 20 22 23 23 23 22 23 23 20 18 17 17 16 15 12 11 11 12 12 12 13 13 13 14 14 15 14 14 14 15 16 17 17 16 16 15 15 14 14 13 13 12 12 10 10 10 9 9 8 8 9 12 14 13
13 12 13 13 14 15 16 18 18 19 21 22 21 21 21 20 19 18 18 16 14 13 10 6 6 8 10 11 12 12 13 13 13 14 13 13 14 15 15 16 17 16 16 15 15 14 14 13 13 12 12 11 10 9 9 9 8 7 8 10 12 13 13
12 11 12 13 13 14 16 18 18 19 20 20 19 20 19 19 18 17 17 15 12 10 8 5 6 9 10 10 11 12 12 13 13 13 13 13 14 15 15 16 16 16 15 15 14 14 13 12 12 12 12 11 9 8 9 9 7 7 9 11 13 12 12
13 10 9 12 13 14 15 17 18 18 18 18 18 18 18 18 17 15 14 12 11 9 8 7 8 9 9 10 11 12 12 13 13 13 13 13 14 15 16 16 16 15 15 14 14 13 12 12 12 12 11 10 8 8 8 8 7 7 10 12 12 12 11
16 11 9 11 13 14 16 17 17 17 17 17 17 16 16 16 15 13 12 11 10 10 9 9 9 9 10 10 11 12 13 13 13 13 13 14 14 15 15 15 15 14 14 14 14 13 12 12 12 12 11 9 8 7 8 7 6 8 10 12 12 11 11
17 12 10 12 14 15 16 16 16 16 16 16 15 14 14 14 13 12 11 10 10 10 9 10 10 10 10 10 11 12 12 12 13 13 14 14 15 15 15 14 14 14 14 14 14 13 13 12 12 11 10 9 8 8 8 7 7 9 11 11 11 11 11
16 12 12 14 14 14 15 15 15 14 14 14 13 12 12 12 12 12 11 10 10 10 10 11 11 11 10 11 11 11 11 12 13 13 14 14 14 14 14 13 14 14 14 14 14 13 13 12 12 11 10 9 8 8 8 8 8 10 11 11 11 11 10
16 14 14 15 15 14 13 14 13 13 13 12 11 11 11 11 11 11 11 10 10 11 11 11 11 11 11 11 12 12 12 12 12 13 13 13 14 13 13 14 14 15 15 15 14 13 12 12 12 11 10 9 9 9 9 9 9 10 11 11 11 11 10
15 14 14 15 15 13 12 12 12 12 12 11 10 10 10 10 10 10 10 10 10 10 11 11 11 11 11 11 11 12 12 12 12 13 13 13 13 14 14 14 15 15 15 15 14 13 12 12 11 10 9 9 9 9 10 10 10 11 11 11 11 11 11
13 14 14 14 13 12 10 10 10 11 10 10 10 10 9 9 10 10 10 10 9 10 10 10 11 11 10 11 11 11 12 12 13 13 13 14 14 14 15 15 15 15 15 15 14 13 12 11 11 10 9 9 10 10 10 11 11 11 11 11 12 12 12
13 13 13 11 11 11 10 10 9 9 9 9 9 10 10 9 10 10 10 10 9 9 9 10 10 10 10 11 11 12 13 13 14 14 15 15 15 15 15 15 15 15 15 14 13 12 12 11 10 10 9 10 10 11 11 12 12 11 11 12 12 13 13
13 12 11 9 8 10 10 10 8 7 8 9 9 9 9 9 10 10 10 9 9 8 8 8 9 10 10 11 11 12 13 13 14 14 14 15 15 14 14 14 14 14 14 13 13 12 12 11 11 10 10 10 10 11 12 13 13 12 12 12 13 13 14
13 11 10 8 8 8 9 9 8 7 7 8 9 8 9 10 10 9 8 7 6 6 6 7 8 9 10 10 10 11 12 12 13 13 13 13 13 13 13 13 13 13 13 13 13 12 12 12 11 11 11 10 11 11 12 13 13 13 12 13 14 14 14
12 10 9 8 8 8 7 7 7 6 6 7 8 8 9 9 8 6 5 4 5 5 6 7 7 8 9 9 9 10 10 11 11 11 11 11 11 12 12 12 12 13 13 13 13 13 13 12 12 11 11 11 11 12 13 13 13 13 14 14 15 15 16
11 9 9 8 8 7 5 5 5 6 6 5 6 7 7 6 5 4 4 5 5 6 7 7 8 8 8 8 9 9 9 10 10 10 11 11 11 12 12 12 12 13 13 13 13 13 12 12 12 11 11 11 12 13 13 14 14 14 14 15 16 17 17
10 9 8 7 6 6 5 4 4 5 5 5 5 6 5 3 3 4 6 6 7 7 8 8 8 8 8 9 9 9 9 10 10 10 11 11 12 12 12 12 12 12 13 13 13 12 12 12 11 11 11 11 12 13 13 14 14 14 15 15 16 17 18
11 9 8 7 6 5 4 4 4 4 4 4 4 3 2 2 4 5 6 7 7 8 9 9 8 8 9 9 9 9 9 9 10 10 11 11 11 12 11 12 12 12 12 12 12 12 12 12 11 11 11 11 12 12 13 13 13 14 14 15 16 17 17
10 9 7 6 5 4 4 4 5 4 4 3 2 2 1 2 4 5 6 7 7 8 8 8 8 8 8 9 9 9 9 9 9 9 10 10 10 11 11 11 12 12 12 12 12 12 11 11 11 11 11 11 11 12 12 12 13 13 14 15 15 16 17
9 7 6 6 6 5 4 5 5 4 3 2 2 1 2 3 4 5 6 7 7 8 8 8 8 8 9 9 9 9 9 9 9 9 9 9 9 9 10 10 11 11 11 11 11 11 11 12 11 11 11 11 11 12 12 13 14 14 14 15 15 16 17
Wind_Direction
12 354 340 318 314 311 308 304 293 302 330 329 327 329 324 317 316 318 318 318 318 318 319 321 322 324 329 331 323 318 323 322 318 313 310 312 315 316 315 313 315 316 313 311 311 309 306 303 302 299 296 294 295 297 300 302 303 302 304 307 309 311 310
17 350 340 326 318 315 313 309 302 311 332 332 327 325 319 315 313 313 313 313 314 315 315 317 318 320 323 326 321 313 316 320 317 313 310 310 314 316 313 311 313 315 311 309 308 307 304 300 299 297 294 293 294 296 299 300 301 303 306 310 312 314 312
11 344 334 325 315 313 313 315 316 319 326 328 323 317 313 310 308 308 309 310 311 312 312 313 314 315 317 320 319 310 309 315 316 313 309 308 312 313 312 311 312 313 310 307 306 305 302 298 296 294 292 292 293 295 298 299 302 305 309 311 313 315 314
347 330 323 318 311 312 314 319 323 321 320 319 313 308 306 306 306 306 307 307 308 308 309 309 309 310 312 314 315 309 304 309 312 312 309 307 310 312 312 312 311 310 308 306 304 303 300 295 293 293 292 292 293 295 297 299 303 307 309 311 313 315 315
324 316 316 312 309 312 317 322 325 320 317 313 308 305 305 304 304 304 304 304 304 302 303 304 304 306 307 308 310 306 301 304 308 310 309 306 308 311 313 311 309 308 307 305 303 301 298 294 292 293 293 293 293 293 295 298 302 306 309 311 314 316 317
319 316 313 310 311 314 318 322 322 320 319 317 312 309 306 304 302 301 301 300 300 298 298 300 301 302 301 301 304 301 297 300 304 307 307 304 306 310 311 310 309 308 306 304 301 299 297 294 292 292 292 292 292 291 293 296 301 306 309 311 315 317 318
313 309 307 307 308 311 315 318 317 318 320 319 315 311 306 302 299 298 296 294 293 293 293 293 295 298 296 295 297 295 293 296 301 304 306 303 304 308 310 310 308 307 305 302 300 299 298 295 292 291 291 291 290 289 291 295 301 306 309 312 316 317 318
305 303 302 301 302 306 310 312 314 316 317 314 312 309 304 300 296 293 291 289 288 287 286 287 289 290 288 286 287 287 288 293 300 307 306 303 305 309 310 310 307 305 303 300 300 301 300 297 293 291 291 290 289 289 290 295 301 306 310 313 316 317 317
305 303 300 299 301 303 304 307 310 311 311 309 307 305 302 300 297 296 293 291 289 286 284 287 288 284 280 279 280 281 288 295 304 309 307 304 308 310 309 307 305 303 302 300 302 303 301 299 294 291 291 290 289 290 292 297 302 307 310 313 315 316 316
302 301 301 301 300 300 300 302 304 306 306 305 303 303 304 304 304 304 301 295 292 289 286 287 287 279 277 280 280 282 294 301 305 308 307 307 309 309 306 304 303 303 302 302 304 305 303 301 296 292 291 291 290 292 295 299 303 306 310 313 315 315 316
296 296 297 298 297 296 296 297 301 304 304 303 304 305 307 307 308 310 306 301 300 295 284 280 282 274 274 281 281 287 299 302 303 305 307 307 307 305 303 302 303 303 303 304 305 305 303 302 299 295 293 292 292 294 297 300 303 306 311 312 313 314 316
290 291 292 294 294 293 294 298 302 303 304 307 309 309 308 307 306 305 303 305 308 297 280 275 278 267 261 272 282 293 299 300 302 305 307 307 306 304 304 303 304 302 303 305 306 305 304 303 302 300 297 295 294 295 298 301 304 309 311 311 311 313 317
288 290 291 291 292 294 297 301 302 303 306 309 310 309 307 305 305 305 305 310 311 296 284 280 274 259 256 275 287 294 297 298 304 307 309 308 306 305 305 304 303 301 302 305 306 306 306 305 305 302 298 295 294 296 300 303 307 310 310 310 310 314 317
289 290 291 291 294 298 300 301 301 303 306 309 311 310 307 307 309 311 313 313 310 303 294 280 268 261 266 280 289 291 292 297 305 308 310 308 306 306 305 302 299 299 302 305 307 307 306 305 305 302 298 295 294 298 303 305 307 309 308 309 311 315 318
289 289 291 294 297 298 298 299 301 305 309 313 314 311 309 311 311 312 313 310 308 309 297 270 264 268 272 282 288 286 289 298 306 309 309 307 306 306 303 299 297 298 303 307 308 308 306 305 304 301 298 296 297 303 306 306 307 308 308 310 312 317 320
284 286 289 295 296 295 297 300 303 309 313 315 315 314 313 313 311 312 314 312 309 308 291 265 264 270 274 285 287 284 292 302 307 309 308 306 306 304 300 297 298 302 307 309 309 308 307 306 303 301 298 297 301 307 307 304 305 305 306 309 313 318 320
271 278 283 289 291 294 301 305 306 311 313 314 315 315 314 315 315 316 317 315 311 306 293 271 264 269 281 289 287 289 299 304 305 306 306 307 305 302 299 298 301 306 309 310 310 308 307 305 302 300 299 301 305 308 303 300 301 301 302 307 313 318 319
266 274 283 288 293 300 307 308 308 311 312 313 315 315 317 319 319 320 321 318 312 306 296 277 268 275 288 290 289 295 300 300 303 306 306 307 304 301 301 301 305 309 310 310 310 308 306 305 302 301 303 306 308 306 301 298 296 296 300 306 314 318 319
304 302 295 294 301 308 310 309 310 312 313 314 315 317 321 322 322 326 329 325 316 306 296 282 273 276 285 289 291 295 297 300 305 307 307 306 304 303 304 306 308 310 310 310 309 307 306 304 303 304 307 308 309 303 298 296 294 295 300 308 316 319 319
316 313 304 304 310 313 311 310 313 314 313 315 317 320 324 324 325 331 336 332 324 313 303 288 275 276 287 293 295 297 301 305 307 307 307 306 306 307 308 308 310 310 311 311 309 306 305 303 304 308 310 310 307 299 293 292 291 294 301 312 318 319 319
314 309 306 311 314 313 310 311 315 316 315 316 319 323 326 326 325 330 337 338 332 329 326 304 284 295 301 299 299 300 304 308 309 309 309 310 310 310 308 309 310 311 311 310 306 304 304 305 308 311 311 309 304 294 290 291 293 299 309 317 319 318 321
305 306 309 312 312 310 309 312 314 316 317 318 322 325 327 327 327 330 337 340 340 346 354 339 312 309 303 299 301 304 308 311 312 313 314 313 311 308 308 310 311 311 310 307 304 304 304 308 311 311 310 307 300 292 290 291 296 306 314 317 318 319 323
299 307 314 310 309 309 308 311 315 318 318 319 324 327 326 327 330 334 340 345 344 345 346 337 323 310 303 305 308 311 314 315 316 318 316 311 308 308 310 311 311 311 308 305 304 305 308 311 311 310 309 305 297 289 286 289 299 308 312 315 317 321 325
299 309 318 309 306 306 307 311 316 317 318 321 325 327 327 328 333 338 343 345 342 342 338 330 321 313 311 314 313 315 318 318 317 316 311 307 308 310 311 311 310 309 307 305 306 308 311 312 310 309 308 301 292 286 284 289 300 306 310 314 317 321 326
299 312 320 309 304 305 306 310 314 315 318 322 326 328 328 330 335 339 341 340 336 335 328 319 318 319 318 316 316 317 318 316 313 310 309 310 311 311 311 310 310 310 308 308 310 312 312 310 308 308 305 296 290 285 284 291 300 305 308 313 317 321 325
308 319 319 310 306 305 305 308 312 315 319 323 326 327 328 330 333 335 335 333 330 327 322 320 323 325 322 320 321 321 317 313 310 310 312 313 312 311 311 311 312 313 312 312 312 312 310 307 306 307 302 294 288 284 284 291 297 301 305 311 316 318 321
320 321 315 309 307 307 305 306 310 315 320 324 324 326 327 328 330 332 330 330 329 325 323 324 325 325 323 321 322 320 316 314 314 315 315 313 312 312 312 313 315 316 315 314 312 310 307 304 304 305 301 294 287 283 286 290 293 296 303 310 314 315 317
319 315 310 307 308 307 304 305 311 316 320 322 321 324 327 327 329 331 330 331 330 325 323 325 325 324 323 323 323 321 320 319 319 318 316 314 315 315 315 316 318 317 315 313 310 308 304 302 304 306 302 293 286 284 285 287 291 296 302 307 310 311 313
318 313 309 307 307 304 301 304 312 315 316 319 320 322 327 330 332 333 331 331 330 326 326 327 328 328 328 329 328 326 324 324 322 320 320 319 318 317 316 317 317 316 313 310 308 305 302 301 306 307 302 293 286 284 284 285 288 294 299 304 307 309 310
319 312 307 305 303 300 300 307 312 312 313 315 317 322 328 332 333 331 330 331 331 331 331 329 329 331 332 331 331 329 327 324 322 322 322 320 318 317 316 317 316 313 310 307 306 303 301 303 306 303 298 293 288 285 284 285 287 292 297 302 304 307 309
315 309 302 297 295 295 299 307 310 310 310 311 315 322 326 328 329 329 328 330 331 332 332 330 329 329 330 330 328 325 322 320 320 321 320 319 318 318 317 316 314 310 307 306 305 303 303 304 302 298 296 292 288 287 285 285 289 293 296 298 301 305 310
308 301 290 282 281 287 294 301 305 306 307 311 317 321 320 320 322 323 322 324 327 328 329 327 325 324 324 323 320 317 318 319 320 321 320 319 319 320 319 317 313 311 310 310 309 308 306 303 300 298 296 293 291 290 289 289 292 294 296 298 300 305 310
297 288 280 274 275 282 288 291 295 301 307 311 312 310 309 310 311 312 318 325 327 328 328 327 326 323 321 322 322 324 326 326 326 327 326 326 326 325 324 322 320 319 319 318 317 316 311 306 305 302 299 296 295 294 294 295 297 298 299 301 304 308 311
285 274 268 268 274 279 278 275 286 299 305 300 296 296 298 301 307 319 333 337 336 336 337 338 339 337 334 334 337 339 338 336 336 336 335 335 335 334 332 330 329 329 329 329 328 326 321 318 315 310 306 303 300 299 300 301 301 301 302 304 307 310 312
270 263 262 269 276 275 269 272 284 292 288 277 279 286 290 302 327 338 342 345 346 347 348 349 350 348 346 346 346 346 346 344 343 343 343 342 343 342 340 338 337 337 338 339 339 339 337 333 329 324 319 313 309 307 306 305 305 305 306 308 310 312 315
260 260 265 271 270 263 268 281 281 269 263 266 272 275 280 314 339 342 344 348 350 350 352 354 354 351 350 350 348 347 348 347 346 346 347 346 346 347 346 344 344 346 346 347 349 351 350 348 346 341 334 326 322 319 316 315 314 314 315 316 316 317 319
259 258 263 266 259 252 261 271 265 253 252 255 249 245 280 330 341 343 346 349 349 350 351 352 351 349 348 349 347 346 348 347 345 344 345 347 349 349 348 349 349 349 350 352 353 354 355 356 356 354 349 343 338 333 330 328 327 325 323 322 321 320 320
251 250 250 250 252 254 255 253 248 245 239 221 205 238 307 343 346 346 349 350 347 346 345 345 344 342 341 342 342 341 341 341 340 340 342 345 348 347 347 348 348 347 347 349 349 350 352 354 354 353 351 346 341 338 335 333 330 328 325 323 320 319 317
Height
5911 5911 5911 5911 5910 5910 5910 5909 5908 5907 5905 5904 5904 5904 5905 5904 5903 5902 5901 5900 5899 5897 5896 5895 5894 5892 5890 5889 5887 5886 5884 5882 5881 5880 5879 5878 5877 5876 5875 5873 5872 5871 5870 5869 5868 5868 5867 5866 5866 5865 5864 5863 5862 5862 5861 5860 5859 5859 5858 5857 5855 5854 5853
5911 5912 5912 5911 5910 5910 5910 5909 5908 5906 5904 5903 5902 5902 5903 5902 5901 5900 5899 5898 5897 5895 5894 5893 5892 5891 5889 5888 5886 5885 5883 5881 5880 5879 5877 5876 5875 5874 5873 5871 5870 5869 5868 5867 5867 5866 5866 5865 5864 5863 5862 5862 5861 5860 5860 5859 5858 5857 5856 5855 5853 5852 5851
5912 5912 5911 5911 5910 5910 5909 5907 5906 5904 5902 5902 5901 5901 5901 5900 5899 5898 5897 5895 5895 5893 5892 5891 5890 5889 5888 5886 5885 5883 5881 5879 5878 5877 5876 5874 5873 5872 5871 5870 5868 5868 5867 5866 5865 5864 5864 5863 5862 5862 5861 5860 5859 5859 5858 5857 5857 5855 5854 5853 5852 5850 5849
5911 5911 5911 5910 5909 5908 5907 5905 5903 5901 5900 5900 5900 5899 5899 5898 5897 5896 5894 5893 5892 5891 5890 5889 5888 5887 5886 5885 5883 5882 5879 5878 5876 5875 5874 5872 5871 5870 5869 5868 5867 5866 5865 5864 5864 5863 5862 5862 5861 5860 5859 5858 5858 5857 5857 5856 5855 5854 5852 5851 5850 5848 5847
5909 5910 5910 5909 5907 5906 5905 5903 5902 5900 5899 5899 5899 5898 5897 5896 5895 5894 5892 5890 5889 5887 5887 5886 5885 5885 5884 5882 5881 5880 5878 5876 5874 5872 5871 5870 5869 5868 5867 5866 5865 5864 5864 5863 5862 5861 5861 5860 5859 5858 5857 5856 5856 5856 5855 5854 5853 5852 5851 5849 5848 5847 5846
5909 5908 5908 5907 5906 5904 5903 5902 5901 5900 5899 5898 5897 5896 5895 5893 5891 5890 5888 5887 5885 5883 5883 5883 5882 5882 5881 5880 5879 5878 5876 5874 5872 5870 5869 5868 5868 5867 5866 5865 5864 5863 5862 5861 5860 5860 5859 5858 5857 5856 5855 5855 5854 5854 5854 5853 5851 5850 5849 5847 5846 5845 5844
5908 5907 5907 5905 5904 5903 5902 5901 5900 5899 5898 5897 5895 5894 5893 5890 5888 5886 5885 5882 5880 5879 5878 5878 5879 5878 5878 5877 5876 5875 5873 5871 5870 5868 5867 5866 5866 5865 5864 5863 5862 5861 5860 5859 5859 5858 5857 5856 5855 5854 5853 5853 5853 5852 5852 5851 5849 5848 5847 5845 5844 5843 5842
5906 5906 5905 5904 5903 5902 5900 5899 5898 5897 5896 5894 5893 5891 5889 5887 5884 5881 5879 5877 5875 5874 5872 5872 5874 5874 5873 5872 5872 5872 5871 5869 5868 5866 5865 5865 5864 5863 5862 5861 5860 5859 5859 5858 5857 5856 5855 5854 5853 5852 5852 5851 5851 5850 5850 5849 5847 5846 5845 5844 5843 5841 5840
5904 5903 5903 5902 5901 5900 5899 5897 5897 5896 5894 5892 5890 5888 5886 5883 5880 5877 5876 5874 5872 5870 5868 5868 5869 5869 5868 5867 5867 5870 5870 5868 5865 5863 5863 5863 5862 5861 5860 5860 5859 5858 5857 5856 5855 5854 5853 5852 5851 5851 5850 5849 5849 5848 5848 5847 5845 5844 5843 5842 5841 5839 5838
5902 5901 5900 5899 5898 5897 5896 5895 5894 5893 5892 5890 5887 5885 5883 5881 5878 5876 5874 5871 5868 5865 5864 5865 5866 5866 5865 5864 5866 5868 5868 5866 5863 5862 5861 5861 5860 5860 5859 5858 5857 5856 5855 5854 5853 5852 5851 5851 5850 5849 5848 5847 5847 5846 5846 5845 5843 5842 5841 5840 5839 5838 5836
5899 5898 5898 5897 5896 5895 5894 5893 5892 5890 5889 5888 5886 5884 5881 5878 5876 5873 5870 5867 5864 5861 5860 5861 5862 5862 5862 5863 5864 5865 5865 5864 5862 5861 5860 5859 5859 5858 5857 5856 5855 5854 5853 5852 5851 5850 5849 5849 5848 5847 5846 5846 5845 5844 5844 5842 5841 5840 5839 5838 5837 5836 5835
5896 5895 5895 5894 5893 5892 5891 5890 5889 5888 5887 5886 5884 5882 5879 5875 5871 5868 5866 5865 5863 5857 5855 5858 5859 5858 5859 5861 5862 5863 5862 5861 5860 5859 5858 5857 5857 5856 5855 5854 5853 5852 5851 5850 5849 5848 5848 5847 5846 5845 5844 5844 5843 5842 5841 5840 5839 5838 5837 5836 5835 5834 5833
5893 5893 5892 5891 5890 5889 5889 5888 5887 5886 5885 5884 5882 5879 5876 5872 5867 5864 5863 5864 5863 5857 5854 5856 5857 5856 5858 5859 5860 5860 5860 5859 5857 5857 5856 5855 5854 5854 5853 5852 5851 5850 5850 5849 5848 5847 5846 5845 5844 5843 5842 5842 5841 5840 5839 5838 5837 5836 5836 5835 5834 5833 5832
5891 5890 5889 5888 5887 5887 5886 5885 5884 5883 5882 5881 5879 5876 5873 5870 5866 5864 5864 5863 5862 5858 5855 5855 5855 5856 5857 5857 5857 5858 5857 5856 5855 5854 5854 5853 5852 5852 5851 5850 5850 5849 5848 5847 5846 5845 5844 5843 5842 5841 5840 5839 5839 5838 5837 5836 5835 5834 5834 5833 5832 5831 5830
5888 5887 5886 5886 5885 5884 5883 5882 5881 5880 5879 5878 5876 5874 5871 5867 5864 5863 5862 5860 5858 5855 5853 5853 5854 5855 5855 5855 5855 5855 5855 5854 5853 5852 5851 5851 5850 5850 5849 5849 5848 5847 5846 5845 5844 5843 5842 5841 5840 5839 5839 5837 5837 5836 5835 5834 5833 5832 5832 5831 5830 5830 5829
5884 5883 5883 5883 5882 5881 5880 5880 5879 5878 5877 5875 5873 5871 5869 5865 5861 5860 5859 5857 5855 5852 5851 5851 5852 5852 5853 5853 5853 5853 5852 5852 5851 5850 5850 5849 5849 5848 5848 5847 5847 5846 5845 5843 5842 5842 5841 5840 5838 5837 5837 5836 5835 5834 5833 5832 5831 5831 5830 5830 5829 5828 5827
5879 5880 5880 5880 5879 5878 5878 5877 5876 5875 5874 5872 5870 5868 5866 5863 5859 5858 5856 5854 5853 5851 5849 5849 5850 5850 5851 5851 5851 5851 5850 5850 5849 5848 5848 5847 5847 5846 5846 5846 5845 5844 5843 5842 5841 5840 5839 5838 5837 5836 5835 5834 5833 5833 5832 5831 5830 5830 5829 5828 5828 5827 5826
5876 5878 5877 5877 5876 5876 5875 5875 5874 5873 5871 5870 5868 5866 5864 5861 5857 5855 5853 5850 5849 5849 5848 5847 5848 5848 5849 5849 5849 5849 5849 5848 5848 5847 5846 5846 5845 5845 5845 5844 5843 5843 5842 5840 5839 5838 5837 5836 5835 5834 5833 5832 5832 5831 5830 5830 5829 5829 5828 5827 5827 5826 5825
5876 5876 5875 5874 5874 5873 5873 5872 5871 5870 5869 5867 5865 5864 5862 5859 5856 5853 5851 5848 5847 5847 5846 5846 5846 5847 5847 5848 5848 5848 5847 5847 5846 5845 5845 5844 5844 5843 5843 5843 5842 5841 5840 5839 5837 5836 5835 5834 5833 5832 5831 5831 5830 5830 5829 5829 5828 5828 5827 5826 5825 5825 5824
5873 5873 5873 5872 5872 5871 5870 5869 5869 5868 5866 5864 5863 5861 5859 5857 5855 5853 5850 5848 5847 5846 5844 5844 5845 5845 5846 5846 5846 5846 5846 5845 5844 5844 5843 5843 5842 5842 5842 5841 5841 5839 5838 5837 5836 5834 5834 5833 5832 5831 5830 5829 5829 5829 5828 5828 5827 5827 5826 5825 5824 5823 5823
5871 5872 5871 5869 5869 5869 5868 5867 5867 5865 5864 5862 5860 5859 5857 5855 5853 5852 5850 5848 5847 5845 5843 5843 5844 5845 5845 5845 5845 5845 5844 5844 5843 5842 5842 5841 5841 5841 5840 5840 5839 5838 5836 5835 5834 5833 5832 5831 5830 5829 5829 5828 5828 5828 5827 5827 5826 5825 5825 5824 5823 5823 5821
5871 5870 5868 5867 5867 5867 5866 5865 5864 5863 5862 5860 5858 5857 5855 5854 5852 5850 5849 5847 5846 5845 5844 5844 5844 5844 5844 5844 5844 5844 5843 5842 5842 5841 5840 5840 5840 5840 5839 5838 5837 5836 5835 5834 5833 5832 5831 5830 5829 5828 5828 5827 5827 5827 5826 5826 5825 5824 5824 5823 5822 5821 5820
5870 5867 5865 5865 5865 5865 5864 5863 5862 5861 5860 5858 5857 5856 5854 5853 5851 5850 5848 5847 5846 5845 5844 5844 5844 5844 5844 5844 5843 5842 5842 5841 5840 5840 5840 5840 5839 5839 5838 5837 5836 5834 5833 5832 5831 5830 5829 5828 5827 5827 5826 5826 5826 5826 5825 5825 5824 5823 5823 5822 5821 5820 5819
5868 5866 5864 5863 5863 5863 5862 5861 5860 5859 5858 5857 5855 5854 5853 5852 5851 5849 5848 5846 5845 5845 5844 5844 5844 5844 5843 5843 5842 5841 5841 5840 5840 5839 5839 5839 5838 5837 5836 5835 5834 5833 5832 5831 5830 5828 5827 5827 5826 5826 5825 5825 5825 5825 5824 5823 5823 5822 5822 5821 5820 5819 5818
5867 5866 5863 5861 5861 5861 5860 5860 5859 5858 5857 5856 5854 5853 5852 5851 5850 5848 5847 5846 5845 5845 5844 5844 5844 5843 5843 5842 5842 5841 5840 5840 5839 5839 5839 5838 5837 5836 5834 5833 5832 5831 5830 5829 5828 5827 5826 5825 5825 5824 5824 5824 5824 5823 5823 5822 5822 5821 5821 5820 5819 5818 5816
5865 5862 5860 5859 5859 5859 5858 5858 5857 5857 5856 5855 5853 5852 5851 5850 5849 5848 5847 5846 5845 5845 5844 5844 5843 5843 5842 5841 5841 5840 5840 5839 5839 5838 5837 5836 5835 5834 5833 5831 5830 5829 5828 5827 5826 5826 5825 5824 5824 5823 5823 5823 5822 5822 5822 5821 5820 5820 5820 5818 5817 5816 5815
5860 5859 5858 5857 5857 5857 5857 5856 5856 5855 5854 5853 5853 5852 5851 5850 5849 5848 5847 5846 5845 5844 5844 5843 5842 5842 5841 5841 5840 5840 5839 5839 5838 5837 5836 5835 5833 5832 5831 5830 5829 5828 5827 5826 5825 5825 5824 5823 5823 5822 5822 5821 5821 5821 5820 5820 5819 5819 5818 5817 5816 5815 5813
5858 5857 5857 5856 5855 5856 5856 5855 5855 5854 5853 5852 5852 5851 5850 5849 5848 5848 5847 5846 5845 5844 5843 5842 5842 5841 5841 5840 5839 5839 5838 5837 5836 5835 5834 5833 5832 5831 5829 5828 5827 5826 5825 5825 5824 5824 5823 5822 5822 5821 5820 5820 5820 5819 5819 5818 5818 5817 5816 5815 5814 5813 5812
5855 5855 5855 5854 5854 5854 5854 5854 5854 5852 5851 5851 5850 5850 5850 5849 5848 5847 5846 5845 5844 5843 5842 5841 5841 5840 5839 5839 5838 5837 5836 5835 5835 5834 5833 5831 5830 5829 5828 5827 5826 5825 5824 5824 5823 5823 5822 5821 5820 5820 5819 5819 5818 5818 5817 5817 5816 5815 5814 5813 5812 5811 5810
5853 5853 5853 5853 5853 5852 5852 5852 5852 5851 5850 5850 5850 5849 5848 5848 5847 5846 5845 5844 5843 5842 5841 5841 5840 5839 5838 5837 5837 5836 5835 5834 5833 5832 5831 5830 5829 5828 5827 5826 5825 5824 5823 5823 5822 5822 5821 5820 5819 5818 5818 5817 5817 5816 5816 5815 5814 5814 5813 5812 5811 5810 5809
5852 5852 5852 5852 5852 5851 5851 5851 5851 5850 5850 5849 5849 5848 5847 5846 5846 5845 5844 5843 5842 5842 5841 5840 5840 5839 5838 5837 5836 5835 5834 5833 5832 5831 5830 5829 5828 5827 5825 5825 5824 5823 5823 5822 5821 5820 5819 5818 5817 5817 5816 5816 5815 5815 5814 5813 5813 5812 5811 5810 5809 5808 5807
5850 5850 5850 5850 5851 5851 5850 5850 5850 5850 5849 5848 5848 5847 5846 5845 5845 5844 5844 5843 5842 5842 5841 5840 5839 5838 5837 5836 5836 5835 5833 5832 5831 5830 5829 5828 5827 5826 5825 5824 5823 5822 5822 5821 5820 5819 5818 5817 5816 5815 5814 5814 5813 5813 5812 5812 5811 5810 5809 5808 5807 5806 5805
5849 5849 5849 5849 5850 5850 5850 5850 5849 5849 5848 5848 5847 5846 5846 5845 5844 5844 5843 5843 5842 5841 5840 5840 5839 5838 5837 5836 5835 5834 5833 5832 5830 5830 5829 5827 5826 5825 5824 5823 5822 5821 5820 5819 5818 5817 5816 5815 5814 5814 5813 5812 5812 5811 5811 5810 5809 5808 5807 5806 5805 5804 5804
5848 5848 5848 5848 5849 5849 5850 5849 5848 5848 5847 5847 5846 5846 5845 5844 5844 5843 5843 5842 5841 5840 5840 5839 5838 5837 5836 5835 5834 5833 5832 5831 5830 5829 5828 5827 5826 5825 5824 5823 5822 5820 5819 5818 5817 5816 5815 5814 5813 5812 5812 5811 5810 5810 5809 5808 5808 5807 5806 5805 5803 5802 5801
5847 5847 5847 5847 5848 5848 5848 5848 5848 5847 5847 5846 5846 5845 5844 5844 5843 5842 5842 5841 5840 5839 5839 5838 5837 5836 5835 5834 5833 5832 5832 5831 5830 5828 5827 5826 5825 5824 5823 5822 5821 5820 5819 5817 5816 5815 5814 5813 5812 5811 5810 5810 5809 5808 5808 5807 5806 5805 5804 5803 5802 5801 5800
5846 5845 5845 5846 5846 5847 5847 5847 5847 5846 5846 5845 5845 5844 5843 5843 5842 5842 5841 5840 5839 5838 5838 5837 5836 5835 5834 5833 5832 5832 5831 5830 5829 5828 5827 5826 5825 5824 5823 5822 5820 5819 5818 5817 5815 5814 5813 5812 5811 5810 5809 5808 5808 5807 5806 5806 5805 5804 5803 5802 5801 5799 5798
5844 5844 5844 5845 5845 5846 5845 5845 5845 5845 5845 5844 5844 5843 5843 5842 5842 5841 5840 5839 5838 5838 5837 5836 5835 5834 5833 5833 5832 5831 5830 5829 5828 5827 5826 5825 5824 5823 5822 5821 5820 5819 5817 5816 5815 5814 5812 5811 5810 5809 5808 5808 5807 5806 5805 5804 5803 5802 5801 5800 5799 5798 5796
5842 5843 5844 5844 5844 5844 5844 5844 5844 5844 5843 5843 5843 5842 5842 5842 5841 5840 5839 5838 5838 5837 5836 5835 5834 5834 5833 5832 5831 5830 5829 5829 5828 5827 5826 5824 5823 5822 5821 5820 5819 5818 5817 5816 5814 5813 5812 5811 5809 5808 5808 5807 5806 5805 5804 5803 5802 5801 5800 5799 5798 5796 5795